www.pogodaiklimat.ru
ПОГОДА в Уолнат-Ридже
Время
и дата
02:56 23.06
03:56 23.06
04:56 23.06
05:56 23.06
06:56 23.06
07:56 23.06
08:56 23.06
09:56 23.06
10:56 23.06
11:56 23.06
12:56 23.06
13:56 23.06
14:56 23.06
15:56 23.06
16:56 23.06
17:56 23.06
18:56 23.06
19:56 23.06
20:56 23.06
21:56 23.06
22:56 23.06
23:56 23.06
00:56 24.06
01:56 24.06
02:56 24.06
03:56 24.06
04:56 24.06
05:56 24.06
06:56 24.06
07:56 24.06
08:56 24.06
09:56 24.06
10:56 24.06
11:56 24.06
12:56 24.06
13:56 24.06
14:56 24.06
15:56 24.06
16:56 24.06
17:56 24.06
18:56 24.06
19:56 24.06
20:56 24.06
21:56 24.06
22:56 24.06
23:56 24.06
00:56 25.06
01:56 25.06
Ветер
(напр.,м/с)
Видим. Явления Облачность Т
(С)
Тd
(С)
f
(%)
Тe
(С)
Тes
(С)
Комфортность P
(гПа)
Po
(гПа)
Тmin
(С)
Tmax
(С)
R
(мм)
R24
(мм)
S
(см)
Ю 4 16 км ясно +25.0 +24.4 96 +35 +35 очень
душно
1012.0 1009.9
Ю 3 16 км 8/0 2700 m
[Ac]
+25.0 +24.4 96 +35 +35 очень
душно
1011.9 1009.9
ЮЗ 5 16 км 10/0 2700 m
[Ac]
+25.6 +24.4 93 +36 +36 очень
душно
1012.1 1009.9
Ю 4 16 км 10/0 2550 m
[Ac]
+25.6 +24.4 93 +36 +36 очень
душно
1012.1 1009.9 +25.0 +26.7
ЮЗ 6 16 км слабый дождь 8/0 2100 m
[Ac As]
+26.1 +24.4 90 +36 +37 очень
душно
1012.3 1010.3
Ю 5 16 км 8/0 2250 m
[Ac]
+27.8 +25.0 85 +40 +42 очень
душно
1012.3 1010.3
ЮЗ 6 16 км 8/0 2550 m
[Ac]
+28.3 +23.9 77 +39 +41 очень
душно
1012.2 1010.3
ЮЗ 6
{9}
16 км ясно +30.6 +24.4 70 +43 +50 опасность
перегрева
1012.1 1010.3
З 7 16 км 2/0 3600 m
[Ac]
+32.2 +23.9 62 +44 +49 опасность
перегрева
1012.1 1009.9
З 5
{8}
16 км 8/8 1350 м +32.8 +23.9 60 +45 +47 очень
душно
1012.0 1009.9 +25.6 +33.3
З 5 16 км 5/5 1410 м +33.9 +25.0 60 +48 +53 опасность
перегрева
1011.7 1009.6
СЗ 3 16 км 2/2 1320 м +34.4 +24.4 56 +47 +58 опасность
перегрева
1011.4 1009.6
СЗ 4 16 км ясно +34.4 +24.4 56 +47 +56 опасность
перегрева
1010.9 1008.9
СЗ 3 16 км ясно +34.4 +23.3 53 +45 +52 опасность
перегрева
1010.8 1008.9
СЗ 3 16 км 2/2 1650 м +34.4 +23.9 54 +46 +49 опасность
перегрева
1010.5 1008.6
С 3 16 км ясно +33.3 +23.9 58 +45 +46 опасность
перегрева
1010.8 1008.9 +32.8 +35.0
С 2 16 км ясно +30.6 +23.9 67 +42 +42 опасность
перегрева
1011.0 1008.9
С 4 16 км ясно +26.7 +23.3 82 +36 +36 очень
душно
1011.3 1009.2
СЗ 2 16 км ясно +28.9 +21.7 65 +37 +37 очень
душно
1011.7 1009.6
СЗ 2 16 км ясно +27.2 +21.7 72 +35 +35 очень
душно
1012.2 1010.3
С 2 16 км ясно +25.0 +23.3 90 +33 +33 очень
душно
1012.6 1010.6
штиль 0 16 км ясно +24.4 +23.9 97 +33 +33 очень
душно
1012.7 1010.6 +24.4 +33.3
С 2 16 км ясно +24.4 +24.4 100 +34 +34 очень
душно
1012.6 1010.6
С 3 16 км ясно +23.9 +23.9 100 +33 +33 очень
душно
1012.6 1010.6
С 2 16 км ясно +23.3 +23.3 100 +33 +33 очень
душно
1012.7 1010.6
В 2 16 км ясно +22.8 +22.8 100 +31 +31 очень
душно
1013.0 1010.9
штиль 0 16 км ясно +22.8 +22.2 96 +31 +31 очень
душно
1013.5 1011.3
СЗ 3 16 км ясно +22.8 +22.8 100 +31 +32 очень
душно
1014.4 1012.3 +22.2 +25.0
С 3 16 км ясно +25.0 +23.3 90 +33 +37 очень
душно
1014.9 1013.0
СВ 2 10 км мгла ясно +27.2 +23.3 79 +37 +45 очень
душно
1015.2 1013.3
штиль 0 16 км ясно +29.4 +23.9 72 +40 +57 опасность
солнечного
удара
1015.0 1013.0
В 2 16 км ясно +30.6 +22.8 63 +40 +57 опасность
солнечного
удара
1015.2 1013.0
штиль 0 14 км ясно +31.7 +22.8 59 +41 +68 опасность
перегрева
1015.3 1013.3
штиль 0 16 км ясно +32.8 +22.8 56 +43 +70 опасность
перегрева
1015.1 1013.0 +22.8 +32.8
В 2 16 км ясно +32.8 +21.7 52 +41 +61 опасность
перегрева
1014.5 1012.3
ЮВ 2 16 км ясно +33.9 +21.1 47 +41 +58 опасность
перегрева
1014.0 1011.9
В 3 16 км ясно +34.4 +20.0 43 +40 +51 опасность
солнечного
удара
1013.5 1011.3
Ю 3 16 км ясно +34.4 +20.6 45 +41 +48 опасность
перегрева
1012.9 1010.9
Ю 2 16 км ясно +35.0 +21.1 44 +42 +47 опасность
перегрева
1012.6 1010.6
Ю 2 16 км ясно +33.9 +22.8 52 +44 +45 опасность
перегрева
1012.3 1010.3 +32.2 +35.0
ЮВ 3 16 км ясно +31.1 +24.4 68 +44 +44 опасность
перегрева
1012.2 1010.3
ЮВ 4 16 км ясно +28.9 +23.9 74 +40 +40 очень
душно
1012.4 1010.3
Ю 3 16 км ясно +27.8 +23.3 77 +38 +38 очень
душно
1012.7 1010.6
Ю 3 16 км ясно +26.7 +22.8 79 +35 +35 очень
душно
1012.8 1010.6
Ю 3 16 км ясно +26.1 +22.2 79 +34 +34 очень
душно
1013.1 1010.9
Ю 2 16 км ясно +25.6 +22.8 85 +34 +34 очень
душно
1012.8 1010.9 +25.6 +33.9
ЮЗ 2 16 км ясно +26.1 +21.7 77 +34 +34 очень
душно
1012.8 1010.9
штиль 0 16 км ясно +23.9 +23.3 96 +32 +32 очень
душно
1012.8 1010.6
Местоположение метеостанции Walnut Ridge Regional Airport: широта 39.4700 долгота -76.1700 высота над уровнем моря 18 м.
В архиве по умолчанию представлена погода в Уолнат-Ридже за последние 1-2 суток. Обновление информации о фактической погоде в базе происходит ежечасно! Архивные данные за месяц целиком и за предыдущие месяцы Вы можете получить, выбрав интересующий диапазон дат из раскрывающегося списка и нажав кнопку "Ввод!".
Внимание! Архив погоды МЕТАР в базе сайта по станциям, не включенным в климатический монитор, хранится не более 60 дней. Нет смысла пытаться выбрать более раннюю дату.
*Определитесь, кто Вы:
Внимание! Время в таблицах - местное (без учета летнего времени). Для получения всемирного времени необходимо вычесть поправку, которая равна -6 ч.
Смотрите также архив погоды в соседних городах и на ближайших метеорологических станциях:
Партнеры нашего сайта:      
Пояснения к столбцам:
  • Ветер - указаны скорость ветра в м/с - средняя за 10 мин, порывы в срок и между сроками (в фигурных скобках) и направление, откуда дует ветер: С - северный,
  • СВ - северо-восточный, В - восточный, ЮВ - юго-восточный, Ю - южный, ЮЗ - юго-западный, З - западный, СЗ - северо-западный.
  • Видимость - горизонтальная дальность видимости в метрах или километрах. При видимости от 1 до 10 км при отсутствии осадков обычно наблюдается дымка, при ухудшении видимости до 1 км и менее - туман. В сухую погоду видимость может ухудшаться дымом, пылью или мглою.
  • Явления - указаны атмосферные явления, наблюдавшиеся в срок или в последний час перед сроком; фигурными скобками обозначены явления, наблюдавшиеся между сроками (за 1-3 часа до срока); квадратными скобками обозначены град или гололедные отложения с указанием их диаметра в мм.
  • Облачность - указаны через наклонную черту общая и нижняя облачность в баллах и высота нижней границы облаков в метрах; квадратными скобками обозначены формы облаков: Ci - перистые, Cs - перисто-слоистые, Cc - перисто-кучевые, Ac - высококучевые, As - высокослоистые, Sc - слоисто-кучевые, Ns - слоисто-дождевые, Cu - кучевые, Cb - кучево-дождевые. Подробнее классификацию облаков см. в Атласе облаков (PDF).
  • T - Температура воздуха - температура, измеренная на высоте 2 м над землей.
  • Td - Температура точки росы - температура, при понижении до которой содержащийся в воздухе водяной пар достигнет насыщения.
  • f - Относительная влажность воздуха - влажноcть воздуха, измеренная на высоте 2 м над землей.
  • Te - Эффективная температура - температура, которую ощущает одетый по сезону человек в тени. Характеристика душности погоды. При расчете учитывается влияние влажности воздуха и скорости ветра на теплоощущения человека.
  • Tes - Эффективная температура на солнце - температура, которую ощущает человек, с поправкой на солнечный нагрев. Характеристика знойности погоды. Зависит от высоты солнца над горизонтом, облачности и скорости ветра. Ночью, в пасмурную погоду, а также при ветре 12 м/с и более поправка равна нулю.
  • P - Атмосферное давление - приведенное к уровню моря атмосферное давление.
  • Po - Атмосферное давление - измеренное на уровне метеостанции атмосферное давление.
  • Tmin - Минимальная температура - минимум температуры воздуха на высоте 2 м над землей.
  • Tmax - Максимальная температура - максимум температуры воздуха на высоте 2 м над землей.
  • R - Количество осадков - Количество выпавших осадков за период времени, мм. При наведении курсора мыши на число - период времени, за который выпало указанное количество осадков.
  • R24 - Количество осадков - Количество выпавших осадков за 24 часа, мм.
  • S - Снежный покров - Высота снежного покрова, см. При наведении курсора мыши на число - состояние снежного покрова и степень покрытия местности в баллах.